TTW206 RCTP-RJGG

Flight info

Callsign TTW206
Flight time 2h 10m
Altitude 37000
Route MOLKA1A MOLKA M750 IMPAL Y755 CARDS
Aircraft A320/M-SDE3FGHIRWY/LB1

Departure

Time 2026-05-04 04:36
Airport Taiwan Taoyuan International Airport (RCTP)

Arrival

Time 2026-05-04 06:46
Airport Chubu Centrair International Airport (RJGG)
Time Latitude Longitude Altitude Speed Heading
2026-05-04 04:14 25.07980 121.23898 116 ft 0 kts 320°
2026-05-04 04:25 25.07980 121.23899 116 ft 0 kts 320°
2026-05-04 04:25 25.07969 121.23909 116 ft 2 kts 320°
2026-05-04 04:25 25.07957 121.23920 116 ft 2 kts 320°
2026-05-04 04:25 25.07946 121.23930 116 ft 2 kts 320°
2026-05-04 04:26 25.07934 121.23941 116 ft 2 kts 320°
2026-05-04 04:26 25.07922 121.23952 116 ft 2 kts 320°
2026-05-04 04:26 25.07911 121.23962 116 ft 2 kts 320°
2026-05-04 04:26 25.07900 121.23972 116 ft 0 kts 320°
2026-05-04 04:27 25.07892 121.23980 116 ft 2 kts 297°
2026-05-04 04:27 25.07889 121.23996 116 ft 2 kts 264°
2026-05-04 04:27 25.07893 121.24010 116 ft 1 kts 234°
2026-05-04 04:27 25.07897 121.24016 116 ft 1 kts 226°
2026-05-04 04:28 25.07899 121.24018 116 ft 0 kts 228°
2026-05-04 04:28 25.07899 121.24017 116 ft 0 kts 228°
2026-05-04 04:30 25.07871 121.23981 116 ft 14 kts 230°
2026-05-04 04:30 25.07770 121.23852 116 ft 27 kts 228°
2026-05-04 04:30 25.07649 121.23700 116 ft 27 kts 229°
2026-05-04 04:31 25.07521 121.23536 116 ft 29 kts 229°
2026-05-04 04:31 25.07385 121.23364 116 ft 30 kts 230°
2026-05-04 04:31 25.07269 121.23214 116 ft 16 kts 229°
2026-05-04 04:31 25.07188 121.23189 116 ft 13 kts 145°
2026-05-04 04:32 25.07116 121.23258 116 ft 14 kts 139°
2026-05-04 04:32 25.07036 121.23241 116 ft 13 kts 227°
2026-05-04 04:32 25.06957 121.23141 116 ft 21 kts 228°
2026-05-04 04:32 25.06857 121.23015 116 ft 21 kts 228°
2026-05-04 04:33 25.06757 121.22887 116 ft 22 kts 229°
2026-05-04 04:33 25.06657 121.22760 116 ft 22 kts 229°
2026-05-04 04:33 25.06556 121.22632 116 ft 22 kts 228°
2026-05-04 04:33 25.06454 121.22504 116 ft 22 kts 231°
2026-05-04 04:34 25.06354 121.22374 116 ft 22 kts 229°
2026-05-04 04:34 25.06263 121.22259 116 ft 15 kts 223°
2026-05-04 04:34 25.06187 121.22260 116 ft 10 kts 140°
2026-05-04 04:34 25.06161 121.22285 116 ft 0 kts 137°
2026-05-04 04:35 25.06161 121.22286 116 ft 0 kts 137°
2026-05-04 04:35 25.06135 121.22312 116 ft 8 kts 136°
2026-05-04 04:35 25.06108 121.22379 116 ft 11 kts 73°
2026-05-04 04:35 25.06178 121.22473 116 ft 32 kts 49°
2026-05-04 04:36 25.06476 121.22854 116 ft 96 kts 49°
2026-05-04 04:36 25.07037 121.23565 117 ft 148 kts 51°
2026-05-04 04:36 25.07756 121.24481 548 ft 156 kts 50°
2026-05-04 04:36 25.08431 121.25372 1190 ft 154 kts 52°
2026-05-04 04:37 25.10540 121.28214 2694 ft 183 kts 50°
2026-05-04 04:37 25.11434 121.29355 3045 ft 206 kts 49°
2026-05-04 04:38 25.12468 121.30540 3509 ft 225 kts 46°
2026-05-04 04:38 25.13605 121.31829 3991 ft 242 kts 47°
2026-05-04 04:38 25.14809 121.33196 4616 ft 254 kts 47°
2026-05-04 04:38 25.16057 121.34618 5261 ft 264 kts 48°
2026-05-04 04:39 25.17348 121.36095 5893 ft 275 kts 49°
2026-05-04 04:39 25.18704 121.37653 6490 ft 286 kts 48°
2026-05-04 04:39 25.20099 121.39265 7184 ft 293 kts 47°
2026-05-04 04:39 25.21515 121.40903 7853 ft 300 kts 47°
2026-05-04 04:40 25.22967 121.42580 8512 ft 307 kts 46°
2026-05-04 04:40 25.24464 121.44307 9138 ft 314 kts 45°
2026-05-04 04:40 25.25987 121.46063 9727 ft 322 kts 44°
2026-05-04 04:40 25.27555 121.47868 10342 ft 328 kts 44°
2026-05-04 04:41 25.29026 121.49841 10722 ft 344 kts 58°
2026-05-04 04:41 25.29973 121.52314 11150 ft 355 kts 78°
2026-05-04 04:41 25.30212 121.55038 11734 ft 355 kts 94°
2026-05-04 04:41 25.30139 121.57760 12302 ft 360 kts 90°
2026-05-04 04:42 25.30398 121.60547 12867 ft 366 kts 82°
2026-05-04 04:42 25.30831 121.63286 13407 ft 370 kts 79°
2026-05-04 04:42 25.31345 121.66101 13928 ft 375 kts 79°
2026-05-04 04:42 25.31885 121.68921 14416 ft 379 kts 78°
2026-05-04 04:43 25.32443 121.71775 14960 ft 381 kts 78°
2026-05-04 04:43 25.32999 121.74619 15459 ft 384 kts 78°
2026-05-04 04:43 25.33562 121.77493 15933 ft 387 kts 79°
2026-05-04 04:43 25.34133 121.80423 16414 ft 390 kts 79°
2026-05-04 04:44 25.34701 121.83346 16885 ft 392 kts 79°
2026-05-04 04:44 25.35275 121.86314 17314 ft 396 kts 78°
2026-05-04 04:44 25.35856 121.89309 17737 ft 399 kts 78°
2026-05-04 04:44 25.36436 121.92317 18176 ft 402 kts 78°
2026-05-04 04:45 25.37019 121.95332 18629 ft 404 kts 78°
2026-05-04 04:45 25.37605 121.98361 19060 ft 406 kts 78°
2026-05-04 04:45 25.38191 122.01400 19480 ft 408 kts 79°
2026-05-04 04:47 25.41860 122.20182 21746 ft 426 kts 75°
2026-05-04 04:47 25.42046 122.20927 21823 ft 427 kts 73°
2026-05-04 04:48 25.42720 122.23285 22085 ft 428 kts 70°
2026-05-04 04:49 25.46937 122.35751 23509 ft 438 kts 68°
2026-05-04 04:49 25.48004 122.38911 23833 ft 441 kts 69°
2026-05-04 04:49 25.49067 122.42069 24172 ft 443 kts 69°
2026-05-04 04:49 25.50147 122.45286 24501 ft 446 kts 69°
2026-05-04 04:50 25.51224 122.48502 24841 ft 449 kts 69°
2026-05-04 04:50 25.52303 122.51731 25187 ft 451 kts 69°
2026-05-04 04:50 25.53386 122.54973 25513 ft 453 kts 69°
2026-05-04 04:50 25.54483 122.58251 25824 ft 456 kts 69°
2026-05-04 04:51 25.55585 122.61552 26152 ft 458 kts 69°
2026-05-04 04:51 25.56684 122.64853 26475 ft 461 kts 69°
2026-05-04 04:51 25.57800 122.68201 26788 ft 463 kts 69°
2026-05-04 04:51 25.58910 122.71535 27116 ft 464 kts 69°
2026-05-04 04:52 25.60027 122.74897 27423 ft 466 kts 69°
2026-05-04 04:52 25.61149 122.78275 27718 ft 469 kts 69°
2026-05-04 04:52 25.62278 122.81679 28003 ft 471 kts 70°
2026-05-04 04:52 25.63402 122.85071 28281 ft 473 kts 70°
2026-05-04 04:53 25.64549 122.88516 28570 ft 475 kts 69°
2026-05-04 04:53 25.65702 122.91937 28855 ft 478 kts 69°
2026-05-04 04:53 25.66869 122.95386 29113 ft 480 kts 69°
2026-05-04 04:53 25.68051 122.98888 29411 ft 482 kts 69°
2026-05-04 04:54 25.69217 123.02341 29688 ft 484 kts 69°
2026-05-04 04:54 25.70402 123.05859 29965 ft 486 kts 69°
2026-05-04 04:54 25.71587 123.09386 30240 ft 488 kts 69°
2026-05-04 04:54 25.72768 123.12904 30498 ft 490 kts 69°
2026-05-04 04:55 25.73951 123.16434 30761 ft 492 kts 69°
2026-05-04 04:55 25.75137 123.19972 31018 ft 494 kts 69°
2026-05-04 04:55 25.76335 123.23549 31268 ft 496 kts 69°
2026-05-04 04:55 25.77544 123.27158 31504 ft 498 kts 69°
2026-05-04 04:56 25.78744 123.30750 31725 ft 501 kts 69°
2026-05-04 04:56 25.79951 123.34368 31975 ft 502 kts 70°
2026-05-04 04:56 25.81166 123.38010 32204 ft 504 kts 69°
2026-05-04 04:56 25.82388 123.41681 32432 ft 506 kts 69°
2026-05-04 04:57 25.83606 123.45337 32657 ft 508 kts 69°
2026-05-04 04:57 25.84823 123.48998 32937 ft 508 kts 69°
2026-05-04 04:57 25.86191 123.52583 33265 ft 507 kts 61°
2026-05-04 04:57 25.88030 123.55938 33595 ft 503 kts 50°
2026-05-04 04:58 25.90251 123.58848 33917 ft 497 kts 40°
2026-05-04 04:58 25.92868 123.61365 34245 ft 489 kts 30°
2026-05-04 04:58 25.95704 123.63352 34559 ft 481 kts 20°
2026-05-04 04:58 25.98710 123.64969 34872 ft 477 kts 17°
2026-05-04 04:59 26.01740 123.66481 35088 ft 477 kts 17°
2026-05-04 04:59 26.04774 123.67991 35311 ft 478 kts 17°
2026-05-04 04:59 26.07775 123.69509 35553 ft 478 kts 17°
2026-05-04 04:59 26.10830 123.71079 35726 ft 480 kts 18°
2026-05-04 05:00 26.13830 123.72634 35916 ft 480 kts 18°
2026-05-04 05:00 26.16873 123.74223 36108 ft 481 kts 18°
2026-05-04 05:00 26.22929 123.77397 36456 ft 482 kts 18°
2026-05-04 05:01 26.25971 123.78992 36598 ft 483 kts 18°
2026-05-04 05:01 26.28997 123.80583 36745 ft 484 kts 17°
2026-05-04 05:01 26.32034 123.82179 36919 ft 484 kts 17°
2026-05-04 05:01 26.35106 123.83793 37066 ft 485 kts 17°
2026-05-04 05:02 26.38178 123.85409 37099 ft 485 kts 17°
2026-05-04 05:02 26.44267 123.88612 37106 ft 488 kts 17°
2026-05-04 05:03 26.50436 123.91865 37111 ft 488 kts 17°
2026-05-04 05:04 26.62605 123.98778 37108 ft 497 kts 26°
2026-05-04 05:04 26.68126 124.03532 37115 ft 506 kts 37°
2026-05-04 05:06 26.86514 124.27694 37115 ft 512 kts 45°
2026-05-04 05:07 26.91085 124.33837 37117 ft 513 kts 45°
2026-05-04 05:07 26.95626 124.39951 37112 ft 513 kts 46°
2026-05-04 05:09 27.16157 124.67696 37113 ft 515 kts 46°
2026-05-04 05:10 27.20701 124.73861 37120 ft 515 kts 46°
2026-05-04 05:10 27.25245 124.80031 37118 ft 515 kts 46°
2026-05-04 05:11 27.29828 124.86266 37116 ft 516 kts 46°
2026-05-04 05:11 27.34392 124.92485 37114 ft 517 kts 46°
2026-05-04 05:12 27.38956 124.98716 37118 ft 517 kts 46°
2026-05-04 05:12 27.43549 125.04941 37116 ft 517 kts 45°
2026-05-04 05:13 27.48157 125.11144 37112 ft 517 kts 45°
2026-05-04 05:13 27.52739 125.17320 37115 ft 518 kts 45°
2026-05-04 05:14 27.57337 125.23543 37110 ft 518 kts 45°
2026-05-04 05:14 27.61961 125.29816 37113 ft 518 kts 45°
2026-05-04 05:15 27.66535 125.36020 37113 ft 518 kts 45°
2026-05-04 05:15 27.71127 125.42258 37111 ft 517 kts 46°
2026-05-04 05:16 27.75707 125.48495 37108 ft 517 kts 45°
2026-05-04 05:16 27.80308 125.54761 37108 ft 518 kts 45°
2026-05-04 05:17 27.84881 125.61005 37105 ft 517 kts 45°
2026-05-04 05:17 27.89480 125.67298 37104 ft 517 kts 45°
2026-05-04 05:18 27.94042 125.73537 37103 ft 518 kts 46°
2026-05-04 05:18 27.98615 125.79810 37100 ft 519 kts 45°
2026-05-04 05:19 28.03203 125.86110 37104 ft 518 kts 45°
2026-05-04 05:19 28.07759 125.92371 37103 ft 518 kts 45°
2026-05-04 05:20 28.12350 125.98689 37099 ft 519 kts 45°
2026-05-04 05:20 28.16924 126.05004 37100 ft 519 kts 46°
2026-05-04 05:21 28.21483 126.11299 37101 ft 519 kts 45°
2026-05-04 05:21 28.26081 126.17655 37101 ft 520 kts 45°
2026-05-04 05:22 28.30652 126.23989 37100 ft 520 kts 46°
2026-05-04 05:22 28.35201 126.30299 37100 ft 520 kts 46°
2026-05-04 05:23 28.39792 126.36680 37104 ft 522 kts 46°
2026-05-04 05:23 28.44368 126.43050 37105 ft 522 kts 45°
2026-05-04 05:24 28.48936 126.49415 37108 ft 522 kts 45°
2026-05-04 05:24 28.53532 126.55823 37107 ft 523 kts 45°
2026-05-04 05:25 28.58107 126.62225 37109 ft 522 kts 45°
2026-05-04 05:25 28.62661 126.68597 37108 ft 522 kts 46°
2026-05-04 05:26 28.67234 126.75018 37110 ft 523 kts 46°
2026-05-04 05:26 28.71831 126.81466 37113 ft 524 kts 46°
2026-05-04 05:28 28.90180 127.07340 37114 ft 526 kts 46°
2026-05-04 05:29 28.94756 127.13814 37117 ft 527 kts 46°
2026-05-04 05:29 28.99367 127.20354 37114 ft 527 kts 46°
2026-05-04 05:31 29.17675 127.46400 37110 ft 527 kts 46°
2026-05-04 05:32 29.22230 127.52918 37111 ft 527 kts 47°
2026-05-04 05:33 29.29102 127.62746 37106 ft 527 kts 47°
2026-05-04 05:33 29.33679 127.69318 37101 ft 527 kts 47°
2026-05-04 05:34 29.38265 127.75903 37104 ft 528 kts 47°
2026-05-04 05:34 29.42822 127.82461 37102 ft 530 kts 47°
2026-05-04 05:35 29.47407 127.89079 37102 ft 529 kts 47°
2026-05-04 05:35 29.51971 127.95661 37104 ft 530 kts 47°
2026-05-04 05:36 29.56556 128.02283 37100 ft 531 kts 47°
2026-05-04 05:36 29.61140 128.08926 37098 ft 530 kts 47°
2026-05-04 05:37 29.65726 128.15562 37099 ft 531 kts 48°
2026-05-04 05:37 29.70314 128.22224 37098 ft 530 kts 47°
2026-05-04 05:38 29.77161 128.32179 37097 ft 531 kts 47°
2026-05-04 05:38 29.81757 128.38876 37096 ft 531 kts 47°
2026-05-04 05:39 29.88604 128.48874 37094 ft 532 kts 48°
2026-05-04 05:40 29.95430 128.58874 37091 ft 531 kts 48°
2026-05-04 05:40 29.99996 128.65575 37085 ft 533 kts 48°
2026-05-04 05:41 30.04578 128.72316 37086 ft 532 kts 48°
2026-05-04 05:41 30.09178 128.79088 37085 ft 532 kts 48°
2026-05-04 05:42 30.13738 128.85802 37083 ft 533 kts 49°
2026-05-04 05:42 30.18299 128.92535 37083 ft 533 kts 49°
2026-05-04 05:43 30.22854 128.99283 37077 ft 535 kts 49°
2026-05-04 05:45 30.41099 129.26386 37077 ft 535 kts 48°
2026-05-04 05:47 30.59343 129.53679 37069 ft 538 kts 49°
2026-05-04 05:47 30.63910 129.60545 37076 ft 538 kts 48°
2026-05-04 05:48 30.68476 129.67418 37072 ft 538 kts 49°
2026-05-04 05:48 30.73048 129.74298 37075 ft 538 kts 50°
2026-05-04 05:49 30.77573 129.81149 37080 ft 538 kts 50°
2026-05-04 05:49 30.82133 129.88045 37080 ft 538 kts 50°
2026-05-04 05:51 30.98230 130.17479 37072 ft 540 kts 57°
2026-05-04 05:52 31.02158 130.24911 37069 ft 540 kts 56°
2026-05-04 05:52 31.06101 130.32370 37067 ft 540 kts 56°
2026-05-04 05:54 31.21088 130.60883 37054 ft 538 kts 57°
2026-05-04 05:55 31.25647 130.69586 37052 ft 537 kts 57°
2026-05-04 05:55 31.29508 130.76978 37049 ft 537 kts 57°
2026-05-04 05:56 31.33411 130.84460 37044 ft 539 kts 57°
2026-05-04 05:56 31.37285 130.91910 37047 ft 538 kts 58°
2026-05-04 05:57 31.41162 130.99381 37048 ft 538 kts 58°
2026-05-04 05:57 31.45060 131.06909 37037 ft 539 kts 57°
2026-05-04 05:58 31.48931 131.14388 37037 ft 538 kts 57°
2026-05-04 05:58 31.52784 131.21858 37035 ft 539 kts 57°
2026-05-04 05:59 31.56678 131.29407 37024 ft 539 kts 58°
2026-05-04 05:59 31.60540 131.36937 37020 ft 539 kts 57°
2026-05-04 06:00 31.64382 131.44415 37016 ft 540 kts 58°
2026-05-04 06:00 31.68241 131.51971 37009 ft 540 kts 58°
2026-05-04 06:01 31.72097 131.59525 37006 ft 541 kts 57°
2026-05-04 06:03 31.87486 131.89816 36998 ft 541 kts 58°
2026-05-04 06:05 32.04705 132.23999 36983 ft 540 kts 58°
2026-05-04 06:06 32.08519 132.31619 36985 ft 540 kts 58°
2026-05-04 06:06 32.12310 132.39244 36981 ft 540 kts 60°
2026-05-04 06:07 32.15751 132.47081 36976 ft 540 kts 64°
2026-05-04 06:07 32.19082 132.55032 36967 ft 539 kts 64°
2026-05-04 06:08 32.22402 132.62930 36959 ft 538 kts 63°
2026-05-04 06:08 32.25716 132.70789 36953 ft 537 kts 64°
2026-05-04 06:09 32.29046 132.78690 36950 ft 538 kts 63°
2026-05-04 06:11 32.42314 133.10329 36936 ft 539 kts 64°
2026-05-04 06:13 32.55563 133.42236 36932 ft 540 kts 63°
2026-05-04 06:14 32.67115 133.70296 36921 ft 543 kts 65°
2026-05-04 06:15 32.70430 133.78378 36927 ft 542 kts 65°
2026-05-04 06:15 32.73711 133.86404 36923 ft 543 kts 65°
2026-05-04 06:16 32.76988 133.94446 36921 ft 543 kts 64°
2026-05-04 06:16 32.80256 134.02477 36927 ft 543 kts 64°
2026-05-04 06:17 32.83145 134.10771 36922 ft 542 kts 73°
2026-05-04 06:17 32.85298 134.19292 36912 ft 541 kts 77°
2026-05-04 06:18 32.87376 134.27899 36900 ft 540 kts 76°
2026-05-04 06:20 32.95801 134.62035 36887 ft 539 kts 76°
2026-05-04 06:21 33.01028 134.83365 36885 ft 537 kts 77°
2026-05-04 06:22 33.03097 134.91891 36830 ft 539 kts 77°
2026-05-04 06:22 33.04138 134.96153 36526 ft 535 kts 77°
2026-05-04 06:25 33.31459 135.39625 29572 ft 508 kts 31°
2026-05-04 06:25 33.34260 135.42152 29122 ft 504 kts 32°
2026-05-04 06:26 33.37044 135.44685 28686 ft 501 kts 32°
2026-05-04 06:26 33.39785 135.47188 28258 ft 498 kts 31°
2026-05-04 06:26 33.42530 135.49675 27820 ft 495 kts 32°
2026-05-04 06:26 33.45282 135.52181 27377 ft 492 kts 32°
2026-05-04 06:27 33.52100 135.58389 26261 ft 485 kts 31°
2026-05-04 06:28 33.54793 135.60844 25818 ft 483 kts 31°
2026-05-04 06:28 33.57463 135.63277 25377 ft 481 kts 31°
2026-05-04 06:28 33.60130 135.65714 24934 ft 478 kts 32°
2026-05-04 06:28 33.62761 135.68123 24500 ft 475 kts 32°
2026-05-04 06:29 33.65369 135.70503 24052 ft 472 kts 32°
2026-05-04 06:29 33.67972 135.72893 23618 ft 469 kts 31°
2026-05-04 06:29 33.70564 135.75229 23176 ft 468 kts 31°
2026-05-04 06:29 33.73169 135.77579 22731 ft 466 kts 30°
2026-05-04 06:30 33.75742 135.79894 22291 ft 464 kts 31°
2026-05-04 06:30 33.78326 135.82222 21852 ft 463 kts 31°
2026-05-04 06:30 33.80880 135.84526 21414 ft 462 kts 31°
2026-05-04 06:30 33.83466 135.86865 20955 ft 461 kts 31°
2026-05-04 06:31 33.86019 135.89191 20515 ft 459 kts 31°
2026-05-04 06:31 33.88557 135.91493 20054 ft 459 kts 31°
2026-05-04 06:31 33.91133 135.93826 19584 ft 458 kts 31°
2026-05-04 06:31 33.93657 135.96112 19120 ft 457 kts 31°
2026-05-04 06:32 33.96207 135.98430 18649 ft 457 kts 31°
2026-05-04 06:33 34.13671 136.14343 15689 ft 435 kts 31°
2026-05-04 06:34 34.16071 136.16540 15350 ft 430 kts 31°
2026-05-04 06:34 34.18434 136.18706 15019 ft 424 kts 31°
2026-05-04 06:34 34.20772 136.20836 14683 ft 418 kts 31°
2026-05-04 06:34 34.23071 136.22931 14328 ft 414 kts 30°
2026-05-04 06:35 34.25372 136.25026 13973 ft 409 kts 31°
2026-05-04 06:37 34.44694 136.47414 10606 ft 373 kts 67°
2026-05-04 06:37 34.45683 136.50314 10305 ft 368 kts 66°
2026-05-04 06:38 34.46681 136.53163 10014 ft 363 kts 65°
2026-05-04 06:38 34.47674 136.55930 9732 ft 358 kts 64°
2026-05-04 06:40 34.54388 136.74341 7784 ft 325 kts 64°
2026-05-04 06:40 34.55291 136.76827 7518 ft 321 kts 64°
2026-05-04 06:40 34.56190 136.79308 7252 ft 316 kts 64°
2026-05-04 06:40 34.57067 136.81728 6991 ft 312 kts 63°
2026-05-04 06:41 34.57646 136.83322 6821 ft 309 kts 63°
2026-05-04 06:41 34.59121 136.86175 6456 ft 294 kts 34°
2026-05-04 06:41 34.60899 136.87152 6225 ft 272 kts
2026-05-04 06:41 34.62687 136.86871 6007 ft 255 kts 336°
2026-05-04 06:42 34.64333 136.86166 5803 ft 249 kts 336°
2026-05-04 06:42 34.65977 136.85475 5573 ft 244 kts 338°
2026-05-04 06:42 34.67577 136.84953 5232 ft 238 kts 342°
2026-05-04 06:44 34.77025 136.82904 2988 ft 142 kts 340°
2026-05-04 06:44 34.77926 136.82561 2905 ft 129 kts 336°
2026-05-04 06:44 34.78806 136.82289 2567 ft 133 kts 342°
2026-05-04 06:45 34.79717 136.82167 2162 ft 134 kts 350°
2026-05-04 06:45 34.80645 136.82179 1788 ft 134 kts 354°
2026-05-04 06:45 34.81601 136.82185 1206 ft 144 kts 347°
2026-05-04 06:45 34.82567 136.81886 711 ft 144 kts 334°
2026-05-04 06:46 34.83470 136.81393 372 ft 138 kts 329°
2026-05-04 06:46 34.84324 136.80933 87 ft 132 kts 339°
2026-05-04 06:46 34.84906 136.80768 11 ft 126 kts 347°
2026-05-04 06:46 34.85611 136.80600 9 ft 34 kts 354°
2026-05-04 06:48 34.85605 136.81128 9 ft 18 kts 81°
2026-05-04 06:48 34.85643 136.81259 9 ft 15 kts 31°
2026-05-04 06:49 34.85741 136.81259 9 ft 10 kts 358°